DW2770 Cefalu IT current weather conditions

sailwx.info

Wind from 090 at 1 knots gusting 2

Air temperature 17.8° C
Dewpoint 11.8° C

Last reported at 2014-Nov-23 10:40 UTC.
Time now 2014-Nov-23 11:05 UTC

Location: N 38°02' E 014°02'.
View on Google Maps.

See reports from other nearby stations

  
Tides and Currents Weather Stations Pressure Air Temp Water Temp Dewpoint Dewpoint Depression Visibility Wind Speed Wind Dir Waves Ship Positions
date/time (UTC)wind fromknots sea level pressurealtimeterstation pressurevisibilityair tempwater tempwave heightnotes
2014-Nov-23 10:40 090 1 gusting 2 17.8
2014-Nov-23 10:30 068 1 gusting 4 17.8
2014-Nov-23 10:10 068 17.8
2014-Nov-23 10:00 045 0 gusting 2 17.8
2014-Nov-23 09:40 068 17.2
2014-Nov-23 09:30 045 1 gusting 2 17.8
2014-Nov-23 09:10 135 1 gusting 2 17.8
2014-Nov-23 09:00 068 1 gusting 1 17.2
2014-Nov-23 08:50 068 1 gusting 1 17.8
2014-Nov-23 08:40 045 17.8
2014-Nov-23 08:30 292 17.2
2014-Nov-23 08:10 220 0 gusting 1 16.7
2014-Nov-23 00:00 180 14.4
2014-Nov-22 23:50 180 1 gusting 4 13.9
2014-Nov-22 23:30 180 0 gusting 4 14.4
2014-Nov-22 23:20 180 4 gusting 4 14.4
2014-Nov-22 23:00 202 2 gusting 2 14.4
2014-Nov-22 22:50 180 1 gusting 2 14.4
2014-Nov-22 22:40 181 2 gusting 2 14.4
2014-Nov-22 22:30 180 0 gusting 0 15.0
2014-Nov-22 22:10 202 2 gusting 4 14.4
2014-Nov-22 22:00 202 1 gusting 2 15.0
2014-Nov-22 21:50 180 0 gusting 4 15.0
2014-Nov-22 21:40 180 4 gusting 4 15.0
2014-Nov-22 21:30 202 2 gusting 2 15.0
2014-Nov-22 21:10 180 1 gusting 2 14.4
2014-Nov-22 21:00 180 0 gusting 2 15.0
2014-Nov-22 20:50 196 2 gusting 2 15.0
2014-Nov-22 20:40 180 0 gusting 1 15.0
2014-Nov-22 20:30 202 0 gusting 1 15.0
2014-Nov-22 20:19 180 14.4
2014-Nov-22 19:59 180 1 gusting 2 15.0
2014-Nov-22 19:49 225 2 gusting 2 14.4
2014-Nov-22 19:39 202 13.9
2014-Nov-22 19:29 197 2 gusting 2 14.4
2014-Nov-22 19:19 202 0 gusting 1 14.4
2014-Nov-22 19:09 180 14.4
2014-Nov-22 18:59 196 14.4
2014-Nov-22 18:49 068 14.4
2014-Nov-22 18:29 068 14.4
2014-Nov-22 18:19 090 14.4
2014-Nov-22 17:59 168 14.4
2014-Nov-22 17:49 180 15.0
2014-Nov-22 17:29 158 15.0
2014-Nov-22 17:19 022 15.0
2014-Nov-22 16:59 068 15.6
2014-Nov-22 16:49 068 15.6
2014-Nov-22 16:29 090 1 gusting 1 15.6
2014-Nov-22 16:19 090 0 gusting 1 15.6
2014-Nov-22 15:59 090 16.1
2014-Nov-22 15:49 022 0 gusting 0 16.1
2014-Nov-22 15:29 068 16.1
2014-Nov-22 15:19 068 0 gusting 0 16.7
2014-Nov-22 14:59 068 0 gusting 1 16.7
2014-Nov-22 14:49 090 17.2
2014-Nov-22 14:29 090 17.8
2014-Nov-22 14:19 045 17.8
2014-Nov-22 13:59 068 0 gusting 2 17.2
2014-Nov-22 13:49 068 1 gusting 2 17.8
2014-Nov-22 13:29 068 1 gusting 1 17.8
2014-Nov-22 13:19 068 1 gusting 1 17.8
2014-Nov-22 12:59 068 2 gusting 4 17.8
2014-Nov-22 12:49 068 3 gusting 4 17.8
2014-Nov-22 12:39 090 2 gusting 2 18.3
2014-Nov-22 12:29 068 1 gusting 4 18.3
2014-Nov-22 12:19 068 3 gusting 4 18.3
2014-Nov-22 12:09 054 1 gusting 5 18.3
2014-Nov-22 11:59 045 1 gusting 4 17.8
2014-Nov-22 11:49 068 3 gusting 4 17.8
2014-Nov-22 11:29 085 0 gusting 1 18.3
2014-Nov-22 11:19 045 0 gusting 2 18.3
2014-Nov-22 10:59 090 2 gusting 4 17.8
2014-Nov-22 10:49 068 2 gusting 4 17.8
2014-Nov-22 10:29 066 0 gusting 1 17.8
2014-Nov-22 10:20 068 1 gusting 4 17.8
2014-Nov-22 09:59 112 2 gusting 2 17.8
2014-Nov-22 09:49 090 17.2
2014-Nov-22 09:29 045 17.2
2014-Nov-22 09:19 112 1 gusting 1 17.2
2014-Nov-22 08:59 068 1 gusting 1 17.2
2014-Nov-22 08:49 068 16.7
2014-Nov-22 08:29 070 16.7
2014-Nov-22 08:19 090 16.1
2014-Nov-22 07:59 158 15.6
2014-Nov-22 07:49 135 15.6
2014-Nov-22 07:29 090 15.0
2014-Nov-22 07:19 158 0 gusting 0 15.0
2014-Nov-22 06:59 202 1 gusting 4 14.4
2014-Nov-22 06:49 202 2 gusting 5 14.4
2014-Nov-22 06:30 180 1 gusting 5 13.9
2014-Nov-22 06:20 180 4 gusting 6 13.9
2014-Nov-22 06:00 202 6 gusting 6 13.9
2014-Nov-22 05:50 225 3 gusting 5 13.9
2014-Nov-22 05:30 180 2 gusting 2 13.9
2014-Nov-22 05:20 180 2 gusting 2 13.9
2014-Nov-22 05:00 180 1 gusting 2 13.9
2014-Nov-22 04:50 202 1 gusting 2 13.9
2014-Nov-22 04:30 180 4 gusting 5 13.9
2014-Nov-22 04:20 202 1 gusting 2 13.9
2014-Nov-22 04:00 183 5 gusting 6 13.9
2014-Nov-22 03:50 180 2 gusting 5 13.9
2014-Nov-22 03:30 202 0 gusting 1 13.9
2014-Nov-22 03:20 202 13.9
2014-Nov-22 03:00 202 0 gusting 2 13.9
2014-Nov-22 02:50 180 2 gusting 4 13.9
2014-Nov-22 02:30 180 13.3
2014-Nov-22 02:20 180 2 gusting 2 13.9
2014-Nov-22 02:00 112 0 gusting 4 13.9
2014-Nov-22 01:50 202 2 gusting 4 13.9
2014-Nov-22 01:30 158 3 gusting 6 13.9
2014-Nov-22 01:20 202 5 gusting 5 13.9
2014-Nov-22 01:00 181 2 gusting 5 13.9
2014-Nov-22 00:50 202 3 gusting 5 13.9
2014-Nov-22 00:40 196 2 gusting 5 13.9
2014-Nov-22 00:30 184 2 gusting 4 13.9
2014-Nov-22 00:20 202 2 gusting 4 13.9
2014-Nov-22 00:10 183 4 gusting 4 14.4
2014-Nov-22 00:00 199 2 gusting 5 14.4
2014-Nov-21 23:50 180 2 gusting 4 13.9
2014-Nov-21 23:30 160 1 gusting 2 13.9
2014-Nov-21 23:20 180 1 gusting 1 13.9
2014-Nov-21 23:00 180 0 gusting 4 13.9
2014-Nov-21 22:50 180 4 gusting 4 13.9
2014-Nov-21 22:40 180 2 gusting 4 13.9
2014-Nov-21 22:30 199 2 gusting 4 13.9
2014-Nov-21 22:20 180 0 gusting 5 13.9
2014-Nov-21 22:10 200 13.9
2014-Nov-21 22:00 180 1 gusting 4 13.9
2014-Nov-21 21:50 202 2 gusting 4 13.9
2014-Nov-21 21:30 180 5 gusting 5 13.9
2014-Nov-21 21:20 202 3 gusting 4 13.9
2014-Nov-21 21:00 199 4 gusting 5 13.9
2014-Nov-21 20:50 180 4 gusting 5 13.9
2014-Nov-21 20:40 202 5 gusting 5 13.9
2014-Nov-21 20:30 202 2 gusting 2 14.4
2014-Nov-21 20:20 180 0 gusting 1 14.4
2014-Nov-21 20:10 180 0 gusting 0 14.4
2014-Nov-21 20:00 186 14.4
2014-Nov-21 19:50 202 2 gusting 2 14.4
2014-Nov-21 19:40 180 2 gusting 2 14.4
2014-Nov-21 19:30 202 0 gusting 1 14.4
2014-Nov-21 19:20 202 1 gusting 6 14.4
2014-Nov-21 19:10 180 3 gusting 6 14.4
2014-Nov-21 19:00 135 0 gusting 4 14.4
2014-Nov-21 18:50 180 0 gusting 4 14.4
2014-Nov-21 18:30 195 14.4
2014-Nov-21 18:20 180 14.4
2014-Nov-21 18:00 175 14.4
2014-Nov-21 17:50 180 14.4
2014-Nov-21 17:30 180 14.4
2014-Nov-21 17:20 180 14.4
2014-Nov-21 17:00 072 14.4
2014-Nov-21 16:50 009 15.0
2014-Nov-21 16:40 068 14.4
2014-Nov-21 16:30 183 14.4
2014-Nov-21 16:20 118 15.0
2014-Nov-21 16:00 142 15.0
2014-Nov-21 15:50 180 15.6
2014-Nov-21 15:30 026 15.6
2014-Nov-21 15:20 022 16.1
2014-Nov-21 15:00 028 16.7
2014-Nov-21 14:50 022 16.7
2014-Nov-21 14:30 082 0 gusting 0 17.2
2014-Nov-21 14:10 070 0 gusting 1 17.2
2014-Nov-21 14:00 068 17.8
2014-Nov-21 13:50 068 0 gusting 1 17.8
2014-Nov-21 13:40 069 17.8
2014-Nov-21 13:30 090 0 gusting 0 17.8
2014-Nov-21 13:10 068 0 gusting 1 17.8
2014-Nov-21 13:00 045 17.8
2014-Nov-21 12:50 045 0 gusting 2 18.3
2014-Nov-21 12:40 065 18.3
2014-Nov-21 12:30 068 0 gusting 1 18.3
2014-Nov-21 12:10 072 1 gusting 4 17.8
2014-Nov-21 12:00 055 1 gusting 4 17.8
2014-Nov-21 11:40 068 1 gusting 2 18.3
2014-Nov-21 11:30 068 2 gusting 4 18.3
2014-Nov-21 11:10 090 5 gusting 6 17.8
2014-Nov-21 11:00 068 2 gusting 2 17.8